Location: Arroyo Grande
(40.2671°N, 4.2512°W)
Time: 06:54:37
(UTC+00:00)

Cosmos 2360 Rocket - Pass Details

Date: 03 February 2023
Orbit: 832 x 846 km, 71.0° (Epoch: 26 March)

Event Time Altitude Azimuth Distance (km) Brightness Sun altitude
Rises 19:43:56 0° 228° (SW) 3,374 6.1 -24.3°
Reaches altitude 10° 19:46:35 10° 237° (WSW) 2,445 5.4 -24.8°
Maximum altitude 19:51:38 34° 302° (WNW) 1,358 3.7 -25.8°
Drops below altitude 10° 19:56:45 10° 6° (N) 2,467 4.6 -26.8°
Enters shadow 19:57:17 - 9° (N) 2,646 4.7 -26.9°
